Showing default

OPS 9341 (IDSCS 19), 3284

Orbit data source: Space-Track

OPS 9341 (IDSCS 19), 3284 is a payload satellite owned by SAMSO (US) in GEO that was launched on Thu, 13 Jun 1968 UTC via a TITAN IIIC launch vehicle from the Air Force Eastern Test Range (AFETR). Payload-class satellites include a variety of spacecraft equipped with specific instruments for various scientific and technological missions. These include communications satellites like Starlink; space stations such as the ISS; scientific satellites like the Hubble; Earth observation satellites from companies like Planet Labs, Umbra, and HawkEye 360; GPS; miniature CubeSats for education and research; and military/defense satellites.

Loading next visibility...
Identifier
3284, 1968-050A
Orbit
GEO
Country
Flag of USUS
Related business
Manufacturer
Philco-Ford
Mission
Non-operational spacecraft
Bus & Motor
IDCSP, Unknown motor
Mass
45 kg wet, 45 kg dry
Launch date (UTC)
1968-06-13 (58 years ago)
Launch vehicle
TITAN IIIC
Launch site
Air Force Eastern Test Range (AFETR)
Object type
Payload
Rocket body
Debris
Shape & HBR
Unknown
Radar Cross Section
Medium (>0.1 m² and <1 m²)

Expand to show TLE details & history
Last TLE update: 8 hours ago

TLE from 8 hours ago
0 OPS 9341 (IDSCS 19)
1 03284U 68050A   25352.24615667 -.00000067  00000-0  00000-0 0  9994
2 03284   6.8437  53.3695 0014645 156.6498 172.6647  1.07854128 48255
Epoch: 2025-12-18T05:54Z
TLE epoch observation values (Epoch: 2025-12-18T05:54:27.936Z)
Latitude
-3.47969°
Longitude
-152.84098°
Altitude
33,844.743 km
Speed
3.146 km/s
True Right ascension
01h 31m 31s
True Declination
-3° 28' 34"
Sunlit
Object was in daylight at epoch
Visualization orbit readout
Latitude
Unknown
Longitude
Unknown
Altitude
Unknown
Speed
Unknown
Apparent Right ascension
Unknown
Apparent Declination
Unknown
Sunlit
N/A
Visualization observer readout
Local Sidereal Time
13:08:31
Azimuth
Unknown
Elevation
Unknown
Doppler factor
Unknown
Orbital elements
Apogee altitude
33,846.434 km
Perigee altitude
33,728.789 km
Semi-major axis
40,165.748 km
Eccentricity
0.00146
Inclination
6.8437°
RAAN
53.3695°
Arg. of periapsis
156.6498°
True anomaly
172.68609°
Mean anomaly
172.6647°
Eccentric anomaly
172.6754°
Mean motion
0.26962 °/min
Orbital period
1,335.19 mins
BSTAR
0
Loading maneuver chart data...
Computing Atmospheric mass density...
Loading historical data...
Loading historical data...
Loading historical data...
Loading historical data...
Loading historical data...
Loading historical data...
Loading historical data...

Documentation

Showing up to 5 results
|